Weather History for PATC - October, 2013

Change the Weather History Date:

Friday, October 4, 2013

  Actual Average Record
Temperature  
Mean Temperature 32 °F -  
Max Temperature 34 °F 35 °F 45 °F (2012)
Min Temperature 30 °F 28 °F 21 °F (2003)
Degree Days  
Heating Degree Days 34    
Moisture  
Dew Point 30 °F    
Average Humidity 91    
Maximum Humidity 100    
Minimum Humidity 81    
Precipitation  
Precipitation 0.00 in - - ()
Sea Level Pressure  
Sea Level Pressure 29.89 in    
Wind  
Wind Speed 14 mph (NNE)    
Max Wind Speed 22 mph    
Max Gust Speed 30 mph    
Visibility 9 miles    
Events Rain , Snow    
Averages and records for this station are not official NWS values.
T = Trace of Precipitation, MM = Missing Value Source: NWS Daily Summary

Daily Weather History Graph

Daily Weather History Graph

Search for Another Location

Airport or City:

Trip Planner

Search our weather history database for the weather conditions in past years. The results will help you decide how hot, cold, wet, or windy it might be!

Date:

Astronomy

Oct. 04, 2013 Rise Set
Actual Time 9:32 AM AKDT 8:25 PM AKDT
Civil Twilight 8:42 AM AKDT 9:15 PM AKDT
Nautical Twilight 7:43 AM AKDT 10:14 PM AKDT
Astronomical Twilight 6:40 AM AKDT 11:17 PM AKDT
Moon 9:33 AM AKDT (10/4) 7:55 PM AKDT (10/4)
Length of Visible Light 12h 33m
Length of Day
10h 52m
Waning Crescent, 0% of the Moon is Illuminated
Oct 4
Waning Crescent
Oct 4
New
Oct 11
First Quarter
Oct 18
Full
Oct 26
Last Quarter

Hourly Weather History & Observations

Time (AKDT) Temp. Windchill Dew Point Humidity Pressure Visibility Wind Dir Wind Speed Gust Speed Precip Events Conditions
12:55 AM 32.9 °F 22.8 °F 31.6 °F 95% 29.95 in 4.0 mi North 15.0 mph - N/A Snow Light Snow Showers
1:34 AM 32.0 °F 20.8 °F 30.2 °F 93% 29.95 in 10.0 mi North 17.3 mph - N/A   Partly Cloudy
1:54 AM 32.0 °F 20.1 °F 30.2 °F 93% 29.95 in 10.0 mi North 19.6 mph - N/A Snow Light Snow Showers
1:55 AM 32.7 °F 21.4 °F 30.6 °F 92% 29.95 in 10.0 mi North 18.4 mph - 0.00 in Snow Light Snow Showers
2:54 AM 33.8 °F 22.5 °F 32.0 °F 93% 29.95 in 10.0 mi North 19.6 mph 25.3 mph N/A Snow Light Snow Showers
2:55 AM 33.1 °F 21.2 °F 31.3 °F 93% 29.95 in 10.0 mi North 20.7 mph 25.3 mph N/A Snow Light Snow Showers
3:54 AM 32.0 °F 20.1 °F 32.0 °F 100% 29.95 in 10.0 mi North 19.6 mph - N/A Rain Light Rain Showers
3:55 AM 32.0 °F 19.8 °F 32.0 °F 100% 29.93 in 10.0 mi North 20.7 mph - N/A   Scattered Clouds
4:14 AM 32.0 °F 20.8 °F 32.0 °F 100% 29.95 in 2.5 mi NNE 17.3 mph - N/A Snow Light Snow Showers
4:34 AM 33.8 °F 23.2 °F 32.0 °F 93% 29.95 in 10.0 mi North 17.3 mph - N/A Rain , Snow Light Rain Showers
4:55 AM 32.7 °F 21.8 °F 31.6 °F 96% 29.95 in 4.0 mi NNE 17.3 mph - N/A Snow Light Snow Showers
5:55 AM 32.4 °F 21.7 °F 30.9 °F 94% 29.95 in 10.0 mi NNE 16.1 mph - N/A Snow Light Snow
6:14 AM 32.0 °F 20.1 °F 32.0 °F 100% 29.95 in 3.0 mi North 19.6 mph - N/A Snow Light Snow Showers
6:55 AM 32.2 °F 20.0 °F 30.9 °F 95% 29.96 in 10.0 mi North 20.7 mph - N/A Rain Light Rain Showers
7:10 AM 32.0 °F 20.1 °F 30.2 °F 93% 29.96 in 7.0 mi North 19.6 mph - N/A   Scattered Clouds
7:14 AM 32.0 °F 19.8 °F 30.2 °F 93% 29.96 in 10.0 mi North 20.7 mph - N/A   Partly Cloudy
7:55 AM 32.0 °F 19.5 °F 30.2 °F 93% 29.96 in 7.0 mi North 21.9 mph - N/A   Partly Cloudy
8:55 AM 32.0 °F 21.2 °F 30.2 °F 93% 29.96 in 10.0 mi North 16.1 mph - N/A   Mostly Cloudy
9:01 AM 32.0 °F 20.8 °F 30.2 °F 93% 29.96 in 10.0 mi North 17.3 mph - N/A   Mostly Cloudy
9:19 AM 32.0 °F 20.8 °F 30.2 °F 93% 29.96 in 10.0 mi North 17.3 mph - N/A Rain Light Rain Showers
9:55 AM 32.0 °F 21.6 °F 30.2 °F 93% 29.96 in 10.0 mi North 15.0 mph - N/A   Mostly Cloudy
10:01 AM 32.0 °F 22.1 °F 30.2 °F 93% 29.95 in 10.0 mi North 13.8 mph - N/A   Mostly Cloudy
10:18 AM 32.0 °F 23.0 °F 30.2 °F 93% 29.95 in 10.0 mi North 11.5 mph - N/A   Mostly Cloudy
10:35 AM 32.0 °F 22.5 °F 30.2 °F 93% 29.95 in 10.0 mi North 12.7 mph - N/A   Scattered Clouds
10:56 AM 32.0 °F 24.2 °F 30.2 °F 93% 29.95 in 10.0 mi North 9.2 mph - N/A   Mostly Cloudy
11:05 AM 32.0 °F 23.6 °F 30.2 °F 93% 29.95 in 5.0 mi North 10.4 mph - N/A Snow Light Snow
11:17 AM 32.0 °F 24.2 °F 30.2 °F 93% 29.95 in 10.0 mi North 9.2 mph - N/A   Mostly Cloudy
11:29 AM 32.0 °F 24.2 °F 30.2 °F 93% 29.95 in 10.0 mi North 9.2 mph - N/A Snow Light Snow
11:55 AM 32.0 °F 24.2 °F 30.2 °F 93% 29.95 in 10.0 mi NNE 9.2 mph - N/A   Scattered Clouds
12:48 PM 32.0 °F 24.2 °F 30.2 °F 93% 29.95 in 10.0 mi NNW 9.2 mph - N/A   Mostly Cloudy
12:55 PM 32.0 °F 24.2 °F 30.2 °F 93% 29.93 in 10.0 mi North 9.2 mph - N/A   Mostly Cloudy
1:08 PM 32.0 °F 26.4 °F 28.4 °F 87% 29.95 in 10.0 mi North 5.8 mph - N/A   Mostly Cloudy
1:28 PM 33.8 °F 27.0 °F 30.2 °F 87% 29.94 in 10.0 mi North 8.1 mph - N/A   Partly Cloudy
1:49 PM 32.0 °F 24.8 °F 30.2 °F 93% 29.94 in 10.0 mi NNE 8.1 mph - N/A   Mostly Cloudy
1:55 PM 32.5 °F 24.8 °F 28.8 °F 86% 29.93 in 10.0 mi North 9.2 mph - N/A   Mostly Cloudy
2:55 PM 32.5 °F 29.3 °F 28.2 °F 84% 29.91 in 10.0 mi ENE 3.5 mph - N/A   Scattered Clouds
3:29 PM 33.8 °F 28.6 °F 30.2 °F 87% 29.90 in 10.0 mi NE 5.8 mph - N/A   Mostly Cloudy
3:55 PM 33.1 °F 28.7 °F 28.4 °F 83% 29.88 in 10.0 mi ENE 4.6 mph - N/A   Overcast
4:09 PM 33.8 °F 30.8 °F 28.4 °F 81% 29.88 in 10.0 mi ENE 3.5 mph - N/A   Overcast
4:29 PM 32.0 °F 28.7 °F 30.2 °F 93% 29.87 in 10.0 mi East 3.5 mph - N/A   Light Drizzle
4:49 PM 33.8 °F 30.8 °F 30.2 °F 87% 29.86 in 5.0 mi Variable 3.5 mph - N/A Rain , Snow Light Rain
4:55 PM 33.3 °F 28.9 °F 30.4 °F 89% 29.85 in 10.0 mi South 4.6 mph - N/A Rain , Snow Light Rain Showers
5:09 PM 33.8 °F 27.0 °F 30.2 °F 87% 29.85 in 10.0 mi South 8.1 mph - N/A   Mostly Cloudy
5:29 PM 33.8 °F 27.0 °F 28.4 °F 81% 29.84 in 10.0 mi SSE 8.1 mph - N/A   Mostly Cloudy
5:49 PM 33.8 °F 28.6 °F 30.2 °F 87% 29.84 in 10.0 mi South 5.8 mph - N/A   Scattered Clouds
5:55 PM 33.4 °F 25.4 °F 29.8 °F 87% 29.83 in 10.0 mi South 10.4 mph - N/A   Scattered Clouds
6:09 PM 33.8 °F 26.4 °F 30.2 °F 87% 29.83 in 10.0 mi SSW 9.2 mph - N/A   Mostly Cloudy
6:55 PM 32.7 °F 25.7 °F 29.1 °F 87% 29.82 in 10.0 mi South 8.1 mph - N/A   Mostly Cloudy
7:55 PM 32.4 °F 25.3 °F 28.6 °F 86% 29.79 in 10.0 mi South 8.1 mph - N/A   Mostly Cloudy
8:55 PM 32.5 °F 23.7 °F 28.4 °F 85% 29.76 in 10.0 mi SSE 11.5 mph - N/A   Overcast
9:29 PM 32.0 °F 24.8 °F 28.4 °F 87% 29.74 in 10.0 mi SE 8.1 mph - N/A   Mostly Cloudy
9:55 PM 31.1 °F 23.7 °F 27.5 °F 87% 29.72 in 10.0 mi SE 8.1 mph - N/A   Mostly Cloudy
10:29 PM 30.2 °F 23.4 °F 26.6 °F 86% 29.70 in 10.0 mi SSE 6.9 mph - N/A   Mostly Cloudy
10:55 PM 32.5 °F 20.8 °F 28.0 °F 83% 29.69 in 10.0 mi SSE 19.6 mph 24.2 mph N/A   Mostly Cloudy
11:49 PM 33.8 °F 21.9 °F 30.2 °F 87% 29.66 in 10.0 mi South 21.9 mph - N/A   Mostly Cloudy
11:55 PM 33.3 °F 21.5 °F 29.3 °F 85% 29.65 in 10.0 mi South 20.7 mph 29.9 mph N/A   Mostly Cloudy